Date String (YYYY-MM-DD hh:mm:ss) UTC,Instrument flags,absolute air pressure of the measurement (hPa),sample flow rate (lpm),inlet stack bypass flow (lpm),air temperature of the measurement (°C),ambient temperature measured by the external sensor (°C),aerosol sample conditioner tube jacket temperature (°C),OPC LED temperature (°C),internal box temperature (°C),relative humidity of the measurement (%),span deviation,mass concentration of particles derived from Lorenz-Mie calculation of OPC scattering (μg/m³),mass concentration of particles derived from Lorenz-Mie calculation of OPC scattering (μg/m³),mass concentration of particles derived from Lorenz-Mie calculation of OPC scattering (μg/m³)
DateTimeUTC,F1_M11,P_M11,Q1_M11,Q2_M11,T1_M11,T2_M11,T3_M11,T4_M11,T5_M11,U1_M11,ZSPAN_M11,X0_M11,X2_M11,X1_M11
2023-06-25 07:00:00,SystemResetWarning,0836.1,5.01,000.00,029.8,025.2,000.0,038.4,031.0,26.0,0000.0,0012.70,0003.27,0001.56
2023-06-25 07:01:00,SystemResetWarning,0836.1,5.00,000.00,029.8,025.7,000.0,038.4,031.0,26.1,0000.0,0013.04,0003.25,0001.56
2023-06-25 07:02:00,SystemResetWarning,0836.1,5.01,000.00,029.7,026.1,000.0,038.4,031.0,26.2,0000.0,0012.53,0003.26,0001.56
2023-06-25 07:03:00,SystemResetWarning,0836.1,5.00,000.00,029.7,026.5,000.0,038.3,031.0,26.2,0000.0,0012.11,0003.26,0001.57
2023-06-25 07:04:00,SystemResetWarning,0836.1,5.00,000.00,029.7,026.9,000.0,038.3,031.1,26.2,0000.0,0011.74,0003.27,0001.58
2023-06-25 07:05:00,SystemResetWarning,0836.1,5.00,000.00,029.7,027.2,000.0,038.3,031.1,26.2,0000.0,0011.31,0003.25,0001.58
2023-06-25 07:06:00,SystemResetWarning,0836.1,5.00,000.00,029.7,027.4,000.0,038.3,031.2,26.2,0000.0,0010.75,0003.27,0001.60
2023-06-25 07:07:00,SystemResetWarning,0836.1,4.99,000.00,029.7,027.6,000.0,038.3,031.2,26.2,0000.0,0011.88,0003.31,0001.62
2023-06-25 07:08:00,SystemResetWarning,0836.1,5.00,000.00,029.7,027.7,000.0,038.3,031.2,26.1,0000.0,0011.67,0003.26,0001.62
2023-06-25 07:09:00,SystemResetWarning,0836.1,5.00,000.00,029.7,027.9,000.0,038.3,031.3,26.1,0000.0,0011.17,0003.30,0001.63
2023-06-25 07:10:00,SystemResetWarning,0836.1,5.00,000.00,029.8,028.0,000.0,038.3,031.3,26.1,0000.0,0011.02,0003.29,0001.62
2023-06-25 07:11:00,SystemResetWarning,0836.1,5.01,000.00,029.8,028.1,000.0,038.3,031.3,26.0,0000.0,0011.52,0003.24,0001.61
2023-06-25 07:12:00,SystemResetWarning,0836.1,5.01,000.00,029.8,028.1,000.0,038.3,031.3,26.0,0000.0,0011.21,0003.25,0001.60
2023-06-25 07:13:00,SystemResetWarning,0836.1,5.00,000.00,029.8,028.2,000.0,038.3,031.4,26.1,0000.0,0011.14,0003.26,0001.61
2023-06-25 07:14:00,SystemResetWarning,0836.1,5.01,000.00,029.8,028.2,000.0,038.3,031.4,26.1,0000.0,0011.73,0003.29,0001.61
2023-06-25 07:15:00,SystemResetWarning,0836.1,4.98,000.00,029.9,028.3,000.0,038.4,031.4,25.9,0000.0,0011.76,0003.28,0001.61
2023-06-25 07:16:00,SystemResetWarning,0836.0,5.00,000.00,029.9,028.3,000.0,038.4,031.4,25.9,0000.0,0012.23,0003.33,0001.62
2023-06-25 07:17:00,SystemResetWarning,0836.0,5.01,000.00,029.9,028.4,000.0,038.4,031.4,25.9,0000.0,0012.58,0003.39,0001.64
2023-06-25 07:18:00,SystemResetWarning,0836.0,5.01,000.00,029.9,028.4,000.0,038.4,031.5,25.8,0000.0,0012.46,0003.42,0001.66
2023-06-25 07:19:00,SystemResetWarning,0836.1,5.00,000.00,029.9,028.4,000.0,038.4,031.5,25.8,0000.0,0013.16,0003.43,0001.65
2023-06-25 07:20:00,SystemResetWarning,0836.0,4.99,000.00,030.0,028.5,000.0,038.4,031.5,25.7,0000.0,0012.96,0003.39,0001.65
2023-06-25 07:21:00,SystemResetWarning,0836.0,5.00,000.00,030.0,028.5,000.0,038.4,031.5,25.7,0000.0,0012.98,0003.37,0001.64
2023-06-25 07:22:00,SystemResetWarning,0836.1,4.99,000.00,030.0,028.5,000.0,038.5,031.5,25.6,0000.0,0011.96,0003.35,0001.65
2023-06-25 07:23:00,SystemResetWarning,0836.1,4.99,000.00,030.0,028.5,000.0,038.5,031.6,25.6,0000.0,0011.40,0003.37,0001.67
2023-06-25 07:24:00,SystemResetWarning,0836.1,5.00,000.00,030.0,028.5,000.0,038.5,031.6,25.6,0000.0,0012.40,0003.38,0001.67
2023-06-25 07:25:00,SystemResetWarning,0836.1,5.01,000.00,030.0,028.6,000.0,038.5,031.6,25.5,0000.0,0011.87,0003.36,0001.67
2023-06-25 07:26:00,SystemResetWarning,0836.1,5.01,000.00,030.1,028.6,000.0,038.5,031.6,25.5,0000.0,0012.02,0003.38,0001.69
2023-06-25 07:27:00,SystemResetWarning,0836.2,5.01,000.00,030.1,028.6,000.0,038.5,031.6,25.4,0000.0,0012.93,0003.35,0001.69
2023-06-25 07:28:00,SystemResetWarning,0836.2,5.00,000.00,030.1,028.6,000.0,038.6,031.7,25.4,0000.0,0013.10,0003.29,0001.67
2023-06-25 07:29:00,SystemResetWarning,0836.1,5.01,000.00,030.1,028.6,000.0,038.6,031.7,25.4,0000.0,0012.52,0003.25,0001.65
2023-06-25 07:30:00,SystemResetWarning,0836.1,4.99,000.00,030.1,028.6,000.0,038.6,031.7,25.4,0000.0,0011.28,0003.27,0001.66
2023-06-25 07:31:00,SystemResetWarning,0836.1,4.98,000.00,030.2,027.7,000.0,038.6,031.7,25.3,0000.0,0011.32,0003.31,0001.66
2023-06-25 07:32:00,SystemResetWarning,0836.1,5.00,000.00,030.1,025.2,000.0,038.5,031.7,25.3,0000.0,0011.29,0003.31,0001.65
2023-06-25 07:33:00,SystemResetWarning,0836.1,5.01,000.00,030.1,024.5,000.0,038.4,031.5,25.3,0000.0,0011.68,0003.30,0001.65
2023-06-25 07:34:00,SystemResetWarning,0836.0,5.01,000.00,029.9,024.8,000.0,038.4,031.0,25.6,0000.0,0011.74,0003.32,0001.63
2023-06-25 07:35:00,SystemResetWarning,0836.0,5.00,000.00,029.8,025.2,000.0,038.4,031.0,25.7,0000.0,0010.79,0003.25,0001.61
2023-06-25 07:36:00,SystemResetWarning,0836.0,5.01,000.00,029.8,025.7,000.0,038.4,031.0,25.9,0000.0,0010.92,0003.27,0001.61
2023-06-25 07:37:00,SystemResetWarning,0836.0,5.00,000.00,029.7,026.2,000.0,038.4,031.0,25.8,0000.0,0011.01,0003.26,0001.61
2023-06-25 07:38:00,SystemResetWarning,0836.0,5.00,000.00,029.7,026.5,000.0,038.4,031.0,25.8,0000.0,0010.65,0003.28,0001.61
2023-06-25 07:39:00,SystemResetWarning,0836.0,5.00,000.00,029.7,026.9,000.0,038.4,031.1,25.7,0000.0,0010.07,0003.30,0001.63
2023-06-25 07:40:00,SystemResetWarning,0836.1,5.00,000.00,029.7,027.1,000.0,038.3,031.1,25.7,0000.0,0009.94,0003.31,0001.65
2023-06-25 07:41:00,SystemResetWarning,0836.1,5.00,000.00,029.7,027.3,000.0,038.3,031.1,25.7,0000.0,0010.07,0003.33,0001.65
2023-06-25 07:42:00,SystemResetWarning,0836.1,5.00,000.00,029.7,027.5,000.0,038.3,031.2,25.8,0000.0,0010.42,0003.34,0001.66
2023-06-25 07:43:00,SystemResetWarning,0836.1,5.00,000.00,029.7,027.7,000.0,038.3,031.2,25.8,0000.0,0010.63,0003.36,0001.68
2023-06-25 07:44:00,SystemResetWarning,0836.1,5.00,000.00,029.7,027.8,000.0,038.3,031.2,25.7,0000.0,0010.31,0003.37,0001.68
2023-06-25 07:45:00,SystemResetWarning,0836.1,5.00,000.00,029.7,027.9,000.0,038.3,031.2,25.7,0000.0,0010.59,0003.41,0001.68
2023-06-25 07:46:00,SystemResetWarning,0836.1,5.00,000.00,029.7,028.0,000.0,038.3,031.3,25.7,0000.0,0011.51,0003.45,0001.69
2023-06-25 07:47:00,SystemResetWarning,0836.1,5.00,000.00,029.8,028.0,000.0,038.3,031.3,25.7,0000.0,0012.05,0003.46,0001.70
2023-06-25 07:48:00,SystemResetWarning,0836.0,5.00,000.00,029.8,028.1,000.0,038.3,031.3,25.7,0000.0,0012.94,0003.45,0001.69
2023-06-25 07:49:00,SystemResetWarning,0836.0,5.00,000.00,029.8,028.1,000.0,038.3,031.3,25.7,0000.0,0012.66,0003.39,0001.68
2023-06-25 07:50:00,SystemResetWarning,0836.0,5.00,000.00,029.8,028.2,000.0,038.3,031.4,25.7,0000.0,0012.62,0003.40,0001.67
2023-06-25 07:51:00,SystemResetWarning,0836.1,5.00,000.00,029.8,028.2,000.0,038.3,031.4,25.6,0000.0,0013.21,0003.40,0001.66
2023-06-25 07:52:00,SystemResetWarning,0836.1,5.00,000.00,029.8,028.3,000.0,038.4,031.4,25.6,0000.0,0013.17,0003.37,0001.66
2023-06-25 07:53:00,SystemResetWarning,0836.1,4.99,000.00,029.9,028.3,000.0,038.4,031.4,25.6,0000.0,0013.17,0003.37,0001.67
2023-06-25 07:54:00,SystemResetWarning,0836.1,4.99,000.00,029.9,028.3,000.0,038.4,031.4,25.6,0000.0,0012.95,0003.32,0001.65
2023-06-25 07:55:00,SystemResetWarning,0836.0,4.99,000.00,029.9,028.4,000.0,038.4,031.4,25.6,0000.0,0012.97,0003.31,0001.66
2023-06-25 07:56:00,SystemResetWarning,0836.1,4.99,000.00,029.9,028.4,000.0,038.4,031.5,25.6,0000.0,0012.73,0003.26,0001.66
2023-06-25 07:57:00,SystemResetWarning,0836.1,5.00,000.00,029.9,028.4,000.0,038.4,031.5,25.5,0000.0,0012.12,0003.22,0001.64
2023-06-25 07:58:00,SystemResetWarning,0836.0,5.01,000.00,030.0,028.4,000.0,038.4,031.5,25.5,0000.0,0011.28,0003.23,0001.63
2023-06-25 07:59:00,SystemResetWarning,0835.9,5.01,000.00,030.0,028.5,000.0,038.5,031.5,25.4,0000.0,0010.36,0003.20,0001.62
